This demonstration page uses our WeatherBlox Daily Observations layout. Learn more.

Left ArrowRight Arrow

39.92423, -83.80882

Hourly Observations for April 27, 2020

Temp ( °F °C ) Dew Point ( °F °C ) Humidity (%) Winds ( mph kmh ) Pressure ( in mb ) Visibility ( mi km ) Precip ( " mm )
12:56 am 00:56 Clear 41 5 39 3.9 93 93 N 5 7 30.15 1021 10 16.0934 0 0
1:56 am 01:56 Clear 39 3.9 39 3.9 100 100 NNW 3 6 30.15 1021 10 16.0934 0 0
2:56 am 02:56 Clear 37 2.8 37 2.8 100 100 WNW 5 7 30.16 1021 10 16.0934 0 0
3:56 am 03:56 Clear 36 2.2 36 2.2 100 100 WNW 6 9 30.17 1022 10 16.0934 0 0
4:56 am 04:56 Clear 36 2.2 36 2.2 100 100 WNW 6 9 30.19 1022 10 16.0934 0 0
5:56 am 05:56 Clear 35 1.7 35 1.7 100 100 NW 3 6 30.19 1022 10 16.0934 0 0
6:56 am 06:56 Sunny with Mist and Fog 35 1.7 35 1.7 100 100 Calm 30.19 1023 6 9.65604 0 0
7:56 am 07:56 Sunny 39 3.9 39 3.9 100 100 W 3 6 30.21 1023 10 16.0934 0 0
8:56 am 08:56 Sunny 45 7.2 39 3.9 80 80 Calm 30.23 1024 10 16.0934 0 0
9:56 am 09:56 Sunny 49 9.4 40 4.4 71 71 Calm 30.24 1024 10 16.0934 0 0
10:56 am 10:56 Sunny 52 11.1 38 3.3 59 59 Calm 30.24 1024 10 16.0934 0 0
11:56 am 11:56 Sunny 55 12.8 41 5 59 59 WSW 8 13 30.24 1024 10 16.0934 0 0
12:56 pm 12:56 Sunny 57 13.9 40 4.4 53 53 W 6 9 30.23 1024 10 16.0934 0 0
1:56 pm 13:56 Sunny 59 15 37 2.8 44 44 WSW 6 9 30.21 1023 10 16.0934 0 0
2:56 pm 14:56 Sunny 61 16.1 38 3.3 43 43 W 8 13 30.18 1022 10 16.0934 0 0
3:56 pm 15:56 Sunny 62 16.7 34 1.1 35 35 WNW 5 7 30.16 1021 10 16.0934 0 0
4:56 pm 16:56 Sunny 61 16.1 36 2.2 39 39 SSW 9 15 30.13 1020 10 16.0934 0 0
5:56 pm 17:56 Sunny 61 16.1 37 2.8 41 41 SSW 12 19 30.12 1020 10 16.0934 0 0
6:56 pm 18:56 Sunny 61 16.1 35 1.7 38 38 SW 8 13 30.1 1019 10 16.0934 0 0
7:56 pm 19:56 Sunny 60 15.6 36 2.2 41 41 S 8 13 30.09 1019 10 16.0934 0 0
8:56 pm 20:56 Partly Cloudy 58 14.4 37 2.8 46 46 S 6 9 30.06 1018 10 16.0934 0 0
9:56 pm 21:56 Cloudy 56 13.3 40 4.4 55 55 S 6 9 30.07 1018 10 16.0934 0 0
10:56 pm 22:56 Cloudy 56 13.3 40 4.4 55 55 S 7 11 30.06 1018 10 16.0934 0 0
11:56 pm 23:56 Cloudy 53 11.7 44 6.7 72 72 SE 5 7 30.08 1019 10 16.0934 0 0

Powered by AerisWeather